CAPE
0 13 100 288 448 472 603 720 703 690 696 809 880 911 942 762 806 720 661 759 683 808 923 868 873 974 1037 1093 1161 1076 1196 1518 1629 1854 2123 2465 2892 2827 2950 3086 2940 2700 2842 3104 2912 3815 2783 2600 2763 3163 3906 4144 3624 3398 3974 3881 4667 4418 4104 2553 3565 2925 2843 2682 2149 1453 466 419 399 368 460 606 1625 1491 693 772 938 1088 1180 1491 1502 1586 1996 1934 1835
0 19 130 299 399 408 581 719 758 802 757 822 816 847 854 722 834 671 622 696 664 770 918 917 822 822 924 1041 999 997 1172 1528 1644 1919 2187 2620 2712 2647 3026 3208 3023 2766 3409 3545 3541 3074 3066 3021 2974 2957 3644 3806 4147 4527 5168 4918 3110 3216 2932 3162 3007 3149 2834 2680 2226 1602 874 403 232 199 602 609 1965 964 709 849 879 1085 1160 999 1009 1442 1609 1633 1548
3 73 148 282 334 372 519 660 793 849 793 772 769 766 680 745 811 550 615 713 692 737 882 862 864 900 997 1071 969 886 1031 1149 1375 1821 2326 2485 2640 2696 2954 3143 2911 2855 3620 4007 2925 3171 3156 2942 2954 3115 2918 3500 3226 2546 3234 2948 3158 3168 3076 3198 3121 2817 3215 3114 2420 1922 1544 1087 547 301 398 147 575 576 624 754 760 858 868 822 930 1349 1430 1457 1402
52 83 131 153 291 360 438 545 706 813 776 666 679 644 656 780 749 531 687 752 728 752 1012 842 932 1012 1033 897 897 1015 1100 1735 1564 1942 2276 2390 2539 2787 2873 2971 2895 2822 3304 4005 2831 3201 3327 2873 3159 3169 3728 3630 2793 2940 3269 2702 2906 2720 2893 3338 3679 2573 2445 2195 3470 2280 1370 793 372 1286 406 744 459 541 601 671 639 654 883 888 1070 1046 1340 1241 1250
67 73 91 150 272 337 388 438 585 680 719 647 659 733 816 826 724 652 746 799 781 1075 1052 848 1206 944 709 868 1303 1321 1524 1553 1706 1989 2233 2408 2409 2734 2810 2840 2862 2882 3240 3691 2778 2622 3016 3074 3392 3296 3418 3173 3486 3363 3320 2943 2984 2863 3038 2969 3130 2945 2464 2095 1967 2622 2442 2240 770 930 665 792 721 849 654 631 640 639 674 812 1068 1182 999 1197 1603
69 83 88 191 278 310 336 366 460 503 606 674 698 762 803 808 730 732 801 801 770 992 904 1115 1083 805 791 992 1106 1170 1376 1538 1638 1856 2148 2283 2465 2562 2706 2774 2869 2914 3141 3341 2696 2441 2453 2513 2597 2921 3200 4111 3808 3050 2976 2596 2364 2674 3351 3025 2943 3215 2653 2291 2112 2169 1975 2342 1831 1860 1061 614 801 915 663 382 287 501 520 810 1155 1095 923 1225 1361
46 62 74 214 261 285 295 329 396 404 490 594 664 739 871 862 811 828 833 722 832 1330 1117 1158 808 654 705 892 968 1105 1397 1620 1694 1837 2061 2200 2371 2446 2598 2609 2783 2857 2881 2976 2838 2474 2375 2371 2269 2513 2940 3243 4360 3672 2856 2400 2333 2602 4080 2776 3286 3542 2622 2290 2361 2045 1862 1840 1852 1694 2732 3247 1110 853 427 221 236 342 568 670 846 927 881 718 924
41 49 106 205 246 219 272 313 354 380 423 504 591 719 857 955 900 862 864 914 1245 1433 1176 892 731 700 597 679 820 856 1063 1439 1693 1836 1961 2276 2396 2386 2481 2498 2630 2753 2646 2685 2582 2344 2677 2324 2345 2657 2714 2514 3812 4092 2940 2331 2507 2774 4165 3183 3412 3109 2906 2466 2241 2126 1895 1884 2065 1361 1457 1521 1518 1072 320 294 236 384 422 589 672 768 518 328 570
39 49 107 207 218 253 282 323 359 383 399 448 559 724 829 935 976 939 931 1164 1463 1484 1174 869 765 733 605 586 809 791 803 937 1344 2010 1847 2463 2395 2410 2421 2414 2502 2652 2672 2634 2566 2453 3397 2907 2596 2808 2955 2612 5456 4636 3103 2638 2304 2620 2384 2566 2567 2804 3632 2900 2164 2173 1935 1849 1640 1211 742 668 822 900 994 533 398 384 415 465 517 334 298 417 460
23 50 105 205 236 263 293 328 380 418 442 486 577 731 807 886 966 976 927 1301 1500 1497 1296 914 837 818 708 643 700 899 1191 1234 1355 1805 1769 2166 2318 2371 2363 2188 2183 2445 2610 2595 2343 2591 2897 3265 2841 2819 2831 2747 4285 3080 2366 2663 2345 2454 2411 2695 3170 2401 2283 2877 2917 2174 1969 1931 1812 1450 1239 1124 964 839 702 558 531 735 698 398 292 399 389 444 530
6 49 83 199 235 277 293 315 404 449 478 525 660 776 786 836 879 897 993 1480 1617 1509 1275 1030 872 770 784 888 842 987 1294 1366 1460 1702 1712 1936 2108 2237 2315 2209 2086 2399 2467 2516 2433 2492 2643 3069 2922 2644 2520 3432 4154 2297 1688 2112 2225 2413 2854 3044 3336 2478 2392 2207 2472 2247 1841 2151 1970 1586 1257 1124 994 849 753 564 512 656 648 686 334 788 493 479 706
0 40 67 177 235 293 254 271 377 460 484 531 748 803 797 826 858 887 1172 1598 1738 1556 1275 1059 1047 836 948 1095 1019 1162 1362 1412 1382 1504 1680 1759 1927 2147 2261 2066 1961 2255 2326 2417 2474 2403 2377 2658 3182 2741 2842 2995 3379 2584 2394 2470 2262 2149 2464 2782 2540 2876 2468 2464 2705 2676 2322 2301 2162 1739 1310 1166 1130 975 747 752 785 693 545 663 1052 1062 917 1074 823
0 21 60 74 170 203 180 192 356 472 515 542 765 834 816 831 871 921 1273 1639 1857 1672 1277 1206 1247 987 1085 1282 1220 1299 1333 1340 1333 1370 1506 1652 1753 1945 2087 1914 1878 2050 2175 2359 2427 2456 2424 2403 2570 2658 2558 2808 2769 2487 2651 2719 2229 2287 1988 2706 2505 2499 2755 2649 2662 2750 2491 2476 2341 1986 1663 1488 1452 1111 857 1232 1193 646 743 770 1368 1437 1581 1446 1511
0 4 44 68 178 237 317 318 376 467 550 571 766 884 834 819 969 993 1222 1635 1909 1829 1430 1419 1372 1164 1161 1386 1429 1409 1316 1289 1337 1381 1449 1534 1608 1822 2030 1962 1894 1973 2132 2269 2399 2448 2468 2446 2300 2366 2455 2529 2704 2702 2777 2532 2261 2332 2692 2236 2427 2185 2550 2633 2575 2628 2578 2597 2578 2553 2124 1808 1705 1403 970 928 849 910 971 938 876 814 1750 1597 1576
0 0 25 68 212 321 327 336 422 473 565 591 741 940 894 901 1093 1139 1231 1587 1876 1920 1646 1564 1399 1306 1311 1382 1526 1469 1263 1289 1314 1434 1468 1394 1434 1609 1928 1952 1892 1906 1954 2070 2241 2381 2306 2383 2413 2320 2297 2358 2765 2889 3000 2744 3239 2578 3395 2437 3111 2862 2679 2615 2672 2673 2696 2731 2698 2678 2239 1863 1891 1789 1217 978 983 1101 1165 1112 1102 1043 945 938 1235
219 0 9 52 176 324 350 359 441 532 599 690 712 943 983 1001 1184 1187 1236 1545 1776 1912 1811 1718 1470 1362 1399 1376 1471 1628 1664 1268 1351 1956 1654 1403 1536 1569 1779 1893 1754 1810 1879 1937 1999 2188 2219 2154 2298 2313 2272 2420 2732 2609 2744 2860 3077 2858 2809 3217 2674 4211 3196 2558 2686 2677 2788 2979 2873 2692 2482 2322 2063 1969 2157 2019 1485 1058 1209 1172 1118 989 1086 996 1166
649 3 0 44 97 298 358 371 445 572 636 798 806 914 1040 1077 1286 1276 1286 1528 1680 1866 1891 1878 1664 1504 1458 1394 1387 1609 1693 1472 1433 1734 1854 1752 1675 1710 1765 1854 1803 1761 1918 2134 2000 2013 2069 2060 2076 2161 2248 2473 2609 2516 2650 2736 2642 2741 2552 2401 2420 2610 2778 2730 3087 2907 2982 3146 2925 2823 2575 2516 2247 2252 2317 2210 1943 1648 1232 1043 1102 1195 1135 1007 1237
897 202 0 30 92 228 356 391 435 577 657 830 944 932 1037 1110 1332 1368 1375 1539 1618 1789 1886 1942 1832 1682 1597 1480 1368 1474 1723 1637 1561 1770 1957 2007 2033 1948 1852 1895 1926 1855 1846 2015 2142 2049 1974 2406 1933 1988 2098 2412 2530 2486 2489 2577 2796 2710 2603 2461 2340 2547 2889 3052 2990 3101 2880 3013 3034 2764 2750 2679 2539 2354 2456 2275 2104 2070 2012 1554 1230 1466 1202 1138 1205
912 629 0 0 52 138 321 398 428 526 642 791 1018 1062 1043 1125 1320 1421 1464 1564 1635 1764 1857 1945 1904 1801 1683 1621 1590 1518 1668 1736 1649 1854 1991 2088 2196 2184 2140 2063 2053 2115 2304 2193 2194 2123 2070 1952 1868 1840 1916 2244 2553 2678 2681 2619 2903 3022 2988 2838 2978 3015 2987 2897 2848 2868 3154 3208 2982 2858 2882 2879 2370 2583 2629 2409 2168 2027 2155 1972 2027 1291 1131 1278 1121
774 768 446 1 34 107 216 381 436 463 599 823 1057 1176 1187 1179 1417 1491 1528 1626 1686 1801 1930 1965 1950 1889 1808 1713 1699 1729 1634 1721 1732 1814 1950 1998 2090 2193 2233 2243 2231 2226 2232 2318 2296 2146 1998 1936 1866 1813 1822 1965 2282 2506 2610 2672 2806 2984 3050 3101 3024 3119 3032 3029 2982 2828 3009 3096 3078 3034 2892 2855 2861 2835 2579 2484 2221 2062 2527 2371 2115 1900 1734 1444 1453
659 711 598 382 19 76 158 320 428 457 661 950 1134 1256 1320 1326 1466 1636 1615 1682 1754 1862 1934 2011 2054 1995 1910 1806 1722 1688 1640 1668 1680 1723 1798 1881 1952 2007 2070 2082 2089 2162 2158 2082 2158 2134 1960 1794 1840 1805 1820 1866 2009 2217 2356 2532 2597 2773 2870 2837 2786 2803 3001 3084 3088 3036 2949 3214 3198 3028 2929 3032 3051 2900 2858 2604 2454 2403 2185 1842 1922 1983 2380 2274 1646
612 690 637 503 325 68 149 181 381 449 727 970 1164 1301 1384 1457 1569 1707 1739 1782 1840 1894 1952 2048 2119 2094 2016 1933 1852 1709 1698 1726 1669 1611 1620 1664 1766 1854 1896 1871 1823 1912 2069 2106 2012 2001 1956 1832 1873 1792 1790 1778 1836 2068 2257 2442 2518 2590 2739 2865 2814 2755 2913 3016 3060 3110 3044 3058 3074 3024 2944 3136 3230 3162 3123 2846 2687 2542 2185 2237 1757 1751 1914 2130 2403
595 688 681 585 436 291 179 186 248 466 821 1044 1189 1311 1392 1524 1628 1740 1818 1905 1926 1929 1961 2068 2160 2133 2065 2016 1974 1874 1865 1941 1773 1612 1511 1468 1482 1535 1562 1601 1590 1605 1858 2054 2059 1963 1904 1844 1897 1877 1815 1848 1812 1914 2118 2417 2497 2583 2680 2809 2893 2857 2798 2883 2984 3000 2947 2953 2918 2870 2803 2737 2841 2982 2894 2654 2557 2400 2321 2330 2344 2184 2318 2096 2464
733 712 774 625 523 397 302 197 195 488 904 1106 1224 1313 1404 1526 1649 1750 1822 1957 2022 1982 1962 2033 2157 2158 2105 2071 2033 1957 1995 2094 2010 1795 1645 1571 1550 1527 1458 1379 1358 1392 1580 1801 1952 1967 1888 1820 1781 1810 1808 1896 2025 2050 2055 2151 2369 2505 2632 2713 2864 2907 2848 2801 2724 2629 2426 2366 2464 2454 2336 2223 2500 2860 2818 2613 2438 2365 2386 2369 2330 2224 2132 2476 2354
663 695 732 640 505 470 408 307 239 563 902 1140 1270 1351 1412 1527 1657 1790 1848 1952 2055 2041 1974 1996 2072 2113 2095 2075 2068 2011 1965 2070 2084 1979 1814 1706 1584 1470 1428 1454 1467 1477 1487 1589 1794 1933 1930 1801 1687 1718 1771 1778 1756 1888 2018 2046 2141 2309 2444 2550 2630 2692 2739 2762 2755 2697 3125 2760 2745 2617 2459 2349 2322 2449 2515 2496 2511 2384 2297 2308 2413 2265 2240 2363 2913
775 739 740 788 763 554 316 256 227 536 777 1008 1162 1354 1490 1578 1700 1845 1949 1926 1997 2041 2025 2004 2018 2029 2029 2025 2034 2008 1905 1975 2024 1989 1880 1740 1664 1588 1512 1504 1556 1553 1508 1581 1733 1926 1873 1753 1611 1610 1720 1812 1839 1849 1893 2022 2120 2198 2343 2474 2548 2591 2623 2687 2740 2700 2749 2876 2925 2815 2719 2758 2777 2756 2683 2533 2441 2442 2314 2397 2512 2352 2339 2256 2422
795 873 816 743 750 719 563 352 286 453 630 790 1117 1350 1443 1501 1634 1774 1765 1658 1780 2006 2032 1992 1997 2022 2005 2003 2008 1972 1890 1892 1921 1895 1778 1690 1657 1643 1580 1553 1601 1610 1596 1646 1829 1921 1764 1702 1704 1675 1643 1781 1880 1920 1985 2059 2100 2142 2234 2341 2449 2517 2565 2632 2681 2641 2708 2784 2840 2896 2885 2782 2662 2584 2510 2558 2446 2334 2237 2138 2208 2066 2125 2122 2026
947 726 753 788 766 693 590 376 175 337 581 742 898 1238 1376 1634 1649 1628 1612 1260 1357 1802 2058 2111 2074 2098 2055 2078 2103 2066 1984 1946 1923 1826 1752 1718 1651 1576 1563 1566 1574 1620 1644 1690 1822 1854 1666 1624 1699 1760 1781 1776 1833 1914 2035 2171 2215 2246 2213 2186 2221 2294 2378 2380 2334 2333 2346 2456 2557 2607 2525 2418 2382 2241 2092 2116 2252 2298 2120 1951 1869 1824 2204 2341 2442
916 856 801 634 722 723 559 367 345 366 349 431 640 927 1249 1513 1659 1698 1598 1465 1443 1554 1818 2016 2122 2134 2162 2181 2197 2191 2137 2099 2084 1994 1911 1908 1805 1645 1538 1516 1511 1550 1577 1597 1605 1675 1637 1501 1622 1702 1782 1842 1858 1919 1973 2010 2118 2226 2266 2257 2261 2295 2325 2333 2251 1989 1894 1976 2292 2432 2397 2145 2038 2713 3046 3005 2018 1897 1695 1755 1620 1950 2485 2436 2555
1079 1095 1090 964 803 640 506 360 343 355 364 422 563 750 1040 1381 1552 1601 1648 1581 1401 1434 1514 1871 2064 2106 2134 2123 2100 1919 1903 2137 2223 2067 1839 1748 1725 1739 1651 1575 1570 1520 1474 1505 1512 1507 1438 1388 1490 1580 1658 1842 2048 2018 2354 2531 2406 2163 2140 2199 2231 2212 2286 2354 2228 1916 1734 1659 1676 1843 1891 2560 2970 3243 3339 3529 4126 4139 3120 2736 2218 1966 2686 2534 2588
972 994 1136 1058 1071 996 686 449 492 364 296 489 716 849 1044 1268 1432 1607 1666 1554 1355 1518 1671 1782 1873 1862 1955 1971 1846 1659 1689 1648 1544 1642 1259 1358 1599 1679 1680 1624 1563 1506 1452 1383 1398 1399 1313 1294 1362 1485 1558 1804 2164 2449 2758 2575 2413 2726 2810 2208 2289 2344 2412 2382 2212 1929 1742 1515 1486 1621 1593 1797 3166 3934 3907 3986 4308 4664 5195 4667 3668 3215 3032 2702 2612
1076 1102 945 648 822 800 802 748 564 359 580 589 592 788 1006 1312 1442 1602 1617 1384 1263 1374 1512 1587 1526 1570 1646 1680 1717 1600 1383 1121 988 1212 1014 1321 1525 1594 1571 1490 1356 1103 1093 1234 1322 1371 1374 1339 1313 1422 1557 1853 2040 2363 2441 2499 2514 2504 2996 2759 2706 2658 2628 2522 2362 2126 1937 1617 1371 1407 1421 1305 1331 1659 1935 1863 2537 3647 4760 4899 4599 4236 4118 3594 2162
801 952 933 829 650 744 976 842 717 482 505 702 827 865 977 1183 1426 1355 1424 1380 1378 1401 1399 1378 1355 1356 1315 1319 1378 1463 1224 818 987 1316 1264 1013 1114 1228 1262 1137 902 742 728 848 1040 1191 1284 1287 1270 1322 1552 1870 1934 1950 2160 2276 2339 2355 2395 2665 2603 2622 2526 2402 2342 2264 2066 1786 1347 1101 1214 1324 1444 3314 4404 3505 2567 2344 4021 4185 4304 4733 4690 3788 2226
692 712 708 617 636 654 697 712 801 695 528 480 602 802 1055 1190 1219 891 922 1159 1044 1252 1272 1152 1088 1266 1177 965 888 876 749 848 899 1082 1280 1214 935 890 817 808 635 1018 888 664 768 921 1033 1116 1152 1194 1506 1800 1875 1906 1986 2092 2181 2200 2216 2185 2196 2197 2204 2220 2201 2103 1997 1827 1273 996 1188 1223 1331 2042 2527 2293 2104 2427 3364 4181 3758 3318 3224 3790 2922
562 501 482 550 524 498 530 614 804 907 794 761 896 897 925 1027 1163 1291 1052 788 867 1050 1058 1095 1319 1434 1476 1316 1180 969 978 1140 1247 1427 1467 1298 1297 1230 1096 1009 693 550 642 633 628 723 792 914 899 912 1160 1471 1658 1769 1879 1972 2064 2127 2105 2020 1853 1838 1858 1922 1849 1741 1729 1718 1363 903 865 1179 1350 1384 1571 1775 2019 2557 3347 3599 3101 2638 2491 2444 2839
457 399 424 526 520 505 502 491 714 933 932 756 783 858 893 897 826 795 858 915 991 1028 935 1122 1391 1484 1547 1659 1631 1627 1699 1748 1725 1793 1780 1759 1735 1590 1403 1238 1178 957 737 460 541 519 924 789 735 710 762 892 1042 1191 1410 1648 1852 1953 2049 2071 1809 1534 1422 1347 1219 1120 1178 1264 1141 862 968 1406 1412 1326 1248 1593 2053 2379 2957 3200 2864 2581 2374 2066 2340
361 393 434 451 404 352 339 411 471 632 752 795 890 807 724 746 828 786 972 1101 1154 1151 1147 1317 1409 1452 1441 1490 1534 1604 1631 1490 1492 1527 1668 1762 1808 1719 1610 1492 1435 1454 1396 976 816 671 875 916 709 571 542 643 818 898 1048 1266 1488 1667 1676 1396 1119 1136 1039 873 748 671 704 944 938 833 1125 1363 1303 1187 1133 1220 1795 2345 2629 2955 2724 2501 2419 2349 2339
317 415 381 360 317 307 384 376 381 304 493 567 560 720 666 739 803 804 916 1064 960 955 1179 1211 1138 1275 1362 1333 1337 1474 1437 1104 964 866 842 884 970 1113 1374 1482 1505 1406 1416 1355 1270 1007 1070 1050 962 865 764 728 652 585 581 586 590 610 608 640 662 655 825 802 763 857 1014 999 1037 2200 1377 1106 1050 1000 1004 1073 1393 1969 2425 2662 2723 2539 2443 2343 2302
502 334 367 330 250 115 66 48 89 0 319 305 382 559 608 646 722 889 822 764 594 582 498 405 406 328 464 645 924 1226 1133 938 911 878 796 732 712 652 618 757 971 1139 1065 1000 1165 1359 1333 1248 1185 1083 988 961 938 921 880 895 902 914 908 868 847 772 889 952 983 1101 1168 1232 1280 2288 1843 1194 1119 1164 1182 1179 1398 1748 2136 2432 2544 2542 2438 2374 2373
327 299 329 272 246 254 175 146 185 112 24 152 174 158 192 306 485 648 793 732 678 684 540 537 606 549 523 586 773 924 991 1032 1085 1008 916 805 684 620 740 825 986 966 949 976 1088 1226 1322 1253 1240 1256 1149 1042 1033 1055 1012 956 951 931 894 920 838 720 894 979 1054 1201 1252 1172 1094 1690 1606 1474 1188 1074 1170 1204 1258 1515 1800 1975 2147 2209 2215 2097 2007
244 203 137 148 0 0 0 9 13 3 44 86 95 114 30 251 424 522 557 557 615 586 562 563 710 847 836 836 813 824 872 822 844 920 869 849 858 810 655 699 752 899 837 901 1029 973 941 961 1018 1122 1138 1031 841 950 1013 966 947 895 833 819 546 888 1105 1147 1057 1065 1128 1224 1278 1310 1528 1586 1395 1216 1190 1265 1319 1384 1456 1573 1696 1745 1629 1352 1279
149 42 0 0 0 0 0 0 0 0 0 2 0 5 28 38 127 262 278 350 304 336 348 402 476 489 562 578 596 570 518 463 488 473 414 413 387 368 455 649 654 680 651 687 1013 994 930 866 838 800 686 612 598 716 770 763 756 786 829 905 888 944 1270 1502 1451 1198 1101 1056 999 1134 1418 1395 1196 1218 1196 1225 1226 1393 1499 1524 1546 1406 1282 1119 944
0 0 0 0 0 0 0 0 0 0 0 0 15 0 77 158 218 236 212 297 295 250 83 116 230 259 44 21 185 243 219 220 203 209 115 260 275 294 320 345 340 365 508 640 700 731 707 618 609 688 729 648 611 555 518 443 383 385 432 589 822 939 900 992 1156 1294 1184 1048 989 1175 1222 1046 974 968 1005 1069 1082 1153 1241 1249 1165 1110 1076 980 827
0 0 0 0 0 0 0 0 0 0 0 0 0 0 0 0 107 100 204 229 193 191 135 155 124 162 134 88 111 189 170 147 214 233 213 240 264 271 269 319 350 358 409 483 520 560 529 490 480 555 439 395 378 325 310 298 251 265 243 288 290 308 397 485 616 847 1024 918 969 997 970 856 916 922 957 958 1054 1068 1041 1011 1036 1075 1028 903 789
0 0 0 0 0 0 0 0 0 0 0 0 0 0 0 0 0 0 0 1 93 110 121 125 0 0 0 70 136 143 38 0 92 27 0 146 160 153 181 210 196 223 276 332 403 464 516 509 484 482 492 458 330 279 303 296 232 224 217 226 277 316 306 290 263 413 665 850 790 837 970 1014 1014 883 819 949 1035 1065 1061 1041 1005 973 922 815 644
0 0 0 0 0 0 0 0 0 0 0 0 0 0 0 0 0 0 0 0 0 0 0 0 0 0 56 65 80 83 85 80 12 50 100 120 135 46 22 105 0 131 144 144 172 253 347 373 352 323 289 292 277 233 194 178 151 152 144 96 102 91 113 175 197 210 330 525 593 645 778 882 1032 911 850 943 818 830 943 916 866 804 693 492 378
0 0 0 0 0 0 0 0 0 0 0 0 0 0 0 0 0 0 0 0 0 0 0 0 0 0 0 0 0 0 0 17 68 90 101 108 114 30 0 0 0 0 52 71 78 77 112 139 170 173 154 152 154 140 0 34 0 0 0 15 18 6 39 101 151 164 178 334 537 602 666 650 860 988 1001 1015 942 903 861 662 681 712 426 321 267
0 0 0 0 0 0 0 0 0 0 0 0 0 0 0 0 0 0 0 0 0 0 0 0 0 0 7 12 14 18 36 31 0 0 0 0 0 0 0 0 0 40 6 0 1 0 28 71 98 107 102 88 74 68 0 27 31 56 0 59 88 100 50 61 97 110 0 100 296 451 564 536 743 811 941 881 626 399 300 255 152 69 200 171 105
0 0 0 0 0 0 0 0 0 0 0 0 0 0 0 0 0 0 0 0 0 0 0 4 2 0 0 0 0 0 0 0 6 21 0 0 0 0 0 0 0 0 0 0 0 0 0 0 41 73 78 79 82 73 66 49 10 0 0 0 2 0 0 0 0 0 0 0 5 184 10 11 311 460 583 455 372 331 264 226 233 251 265 187 104
0 0 0 0 0 0 0 0 0 0 0 0 0 0 0 0 0 0 0 0 0 0 0 0 2 3 0 3 0 0 0 0 0 0 2 0 1 0 0 0 0 0 0 0 0 0 0 0 0 0 15 31 64 60 26 26 26 22 0 0 0 0 0 0 0 0 0 0 0 0 61 117 141 149 160 151 125 56 59 57 102 106 88 92 49
0 0 0 0 0 0 0 0 0 0 0 0 0 0 0 0 0 0 0 0 0 0 0 0 0 0 0 0 0 0 0 0 0 0 0 0 0 0 0 0 0 0 0 0 0 0 0 0 0 0 0 0 0 0 0 0 0 0 0 0 0 0 0 0 0 0 0 0 0 0 0 77 104 109 103 108 84 6 0 0 7 88 0 0 0
Wind_Speed
nan nan 3 2 1 1 2 1 3 4 3 5 6 7 8 9 7 10 11 11 11 11 12 13 15 16 16 16 17 17 16 16 14 14 13 13 12 12 11 10 10 9 8 7 4 4 4 4 4 6 6 5 6 8 9 10 8 6 6 6 7 9 8 7 7 4 5 6 6 5 6 2 2 2 3 4 5 6 6 6 6 5 6 6 7
nan nan 4 3 2 1 1 1 1 3 4 4 7 7 7 9 9 9 11 12 12 12 12 13 15 17 16 17 16 16 16 15 14 15 13 12 10 10 10 9 7 7 6 5 4 3 3 3 4 5 4 5 6 7 7 7 8 8 7 9 6 7 7 8 11 5 8 5 5 6 5 5 1 2 2 1 1 2 4 5 7 7 6 7 7
nan nan 4 3 2 1 1 1 1 3 3 3 6 7 7 8 10 9 10 11 12 11 12 14 15 15 15 16 15 15 17 15 13 12 12 10 9 8 8 7 6 6 5 4 3 3 3 3 5 5 5 5 6 7 7 8 8 9 9 8 12 8 6 8 9 6 4 4 4 3 3 3 2 3 3 3 4 1 4 5 7 8 6 6 6
nan nan 4 3 3 1 2 2 1 2 3 3 5 6 7 7 9 9 9 11 11 11 12 13 13 14 15 12 13 12 13 13 12 11 10 9 8 8 7 7 7 6 5 4 2 3 3 4 3 3 6 5 5 6 7 8 9 9 10 9 8 11 10 9 7 6 3 2 5 4 2 1 2 1 2 5 4 3 2 3 3 6 5 4 5
nan nan nan 5 4 2 1 2 2 1 2 3 4 5 7 6 6 8 9 9 11 11 10 11 11 13 13 14 13 14 13 10 9 10 9 9 8 7 7 6 6 5 4 3 2 2 3 2 2 4 4 5 5 6 6 8 9 8 6 8 9 9 13 10 10 8 7 4 2 4 5 4 1 1 3 3 5 4 3 2 2 2 3 4 5
nan nan nan 5 4 4 4 4 2 1 1 3 3 4 5 5 5 7 9 10 9 10 9 9 9 9 8 8 9 10 8 7 7 7 7 7 7 6 5 5 4 4 3 2 2 2 3 3 2 3 4 5 6 6 7 8 9 8 8 7 10 10 8 11 12 9 7 7 5 6 3 4 3 3 4 2 4 1 2 3 3 3 3 3 5
nan nan nan 6 4 4 4 3 2 2 2 3 3 4 3 4 4 5 8 9 9 9 8 8 8 8 7 6 7 6 4 8 6 6 5 6 5 4 4 4 3 3 3 2 2 2 3 4 4 4 5 6 7 6 7 9 9 9 9 8 9 9 7 9 9 10 10 9 10 10 7 5 3 4 3 3 3 4 5 4 4 4 3 4 5
nan nan 6 5 5 4 5 4 3 2 3 3 3 4 3 3 3 5 7 8 10 9 8 8 6 6 6 7 6 5 3 3 3 3 4 4 3 4 3 3 3 3 3 3 3 3 4 5 5 6 7 8 7 7 7 8 9 10 9 9 9 8 7 6 7 8 5 10 10 10 9 8 6 6 3 2 3 3 4 4 5 4 4 5 7
nan nan 7 6 6 5 6 5 3 5 6 3 3 4 4 5 4 6 7 8 9 9 8 8 7 6 5 5 6 6 4 3 4 4 3 3 2 3 3 4 4 3 4 4 4 4 5 5 5 6 7 8 7 7 6 6 7 8 10 10 9 9 7 7 6 7 6 8 10 10 9 9 7 5 4 4 4 5 4 5 5 5 7 6 8
nan nan 10 9 8 7 7 6 6 6 6 5 4 5 5 6 6 6 7 8 9 9 8 8 8 8 7 6 4 5 6 7 6 5 4 3 1 2 3 4 6 5 5 6 5 5 6 6 6 6 7 8 7 7 6 5 6 6 7 8 8 8 8 9 9 8 7 7 7 8 9 8 9 8 9 8 9 8 6 5 7 9 10 8 8
nan nan nan 10 10 9 10 7 6 7 8 8 7 5 5 6 6 5 6 8 8 8 9 8 8 7 6 6 5 5 5 6 6 5 4 4 2 2 3 5 5 6 5 6 6 5 6 7 7 8 8 8 8 6 6 6 6 4 5 6 6 8 9 10 11 9 8 7 7 8 7 6 7 7 7 8 9 9 9 8 9 8 9 8 6
nan nan nan 11 11 10 9 7 7 7 8 8 8 7 6 6 6 6 8 8 8 8 9 8 8 7 7 5 4 5 5 5 4 3 3 1 1 1 2 3 5 6 6 6 7 6 6 7 8 9 9 9 9 8 7 6 6 5 5 4 5 5 6 7 9 11 11 10 9 9 9 8 8 8 7 7 9 8 9 8 8 8 8 5 1
nan nan nan nan 7 6 7 7 8 8 8 8 8 7 7 7 6 6 7 8 8 8 7 8 8 7 7 6 5 6 5 5 4 4 4 2 2 1 1 2 3 4 6 5 6 6 5 6 8 8 9 9 9 8 8 6 6 5 4 4 5 5 4 5 8 8 6 8 11 10 9 9 10 8 8 8 9 9 9 9 7 8 8 5 2
nan nan nan nan 5 4 5 7 7 7 7 8 9 9 9 9 8 6 6 7 8 9 8 8 7 7 7 7 6 6 5 5 5 4 4 4 4 2 1 0 1 2 3 4 5 5 5 4 5 7 7 8 7 7 6 5 5 4 4 5 5 4 4 4 5 5 4 5 6 10 11 10 10 8 7 8 7 7 8 8 6 6 7 5 3
nan nan nan nan 3 3 5 6 7 8 8 8 10 10 10 10 9 8 8 8 8 8 9 8 8 9 8 8 7 7 5 5 5 6 6 6 5 4 3 2 1 1 1 3 4 4 4 4 4 5 6 6 7 6 6 6 5 5 5 5 5 4 5 4 5 5 6 7 6 7 8 8 8 8 7 7 6 4 5 5 7 5 4 5 3
16 nan nan nan 4 4 4 5 6 8 8 9 9 10 10 10 10 9 9 8 8 9 9 9 9 10 10 8 8 7 8 7 7 8 7 6 5 4 3 3 2 2 2 3 3 3 3 3 3 4 5 5 5 5 5 5 5 4 6 6 7 6 6 6 5 5 5 5 7 6 8 7 5 6 8 6 4 4 5 6 7 7 5 2 2
15 nan nan nan nan 5 3 4 5 7 7 7 9 10 10 11 12 11 11 10 8 8 9 10 11 11 10 9 9 9 8 7 7 6 6 7 6 5 5 4 4 4 3 2 2 2 2 2 2 2 3 3 3 3 4 4 4 4 4 6 6 7 7 7 6 7 6 6 7 8 7 5 5 5 6 8 7 7 6 6 6 5 8 4 3
12 10 nan nan nan 5 5 5 6 8 7 6 8 10 11 12 12 12 12 10 10 10 10 11 11 11 11 10 9 9 9 9 9 7 8 8 7 6 6 6 4 3 3 2 2 2 2 1 2 2 2 3 2 2 3 3 4 3 3 4 5 7 7 8 7 7 7 7 7 8 9 8 6 5 5 7 9 8 6 5 5 7 9 6 8
11 8 nan nan nan 7 7 6 7 9 9 8 9 11 11 11 12 12 11 11 10 11 12 13 11 12 12 10 9 10 11 11 11 10 10 8 7 7 6 5 6 5 3 3 3 3 3 2 2 1 2 3 3 2 3 3 3 3 4 4 5 7 7 6 6 7 6 8 7 7 7 8 6 5 5 7 9 9 5 4 6 7 5 7 8
9 10 8 nan nan 9 9 9 9 11 12 11 10 10 10 10 11 12 13 14 13 12 13 12 11 12 12 13 12 12 12 12 12 11 10 9 7 8 8 7 5 6 5 4 5 5 5 4 4 3 3 3 4 3 4 4 4 3 3 4 4 6 6 5 5 6 6 7 7 7 6 6 7 6 5 7 7 6 5 4 5 5 4 5 7
7 11 11 10 nan nan 12 12 12 14 15 15 12 10 10 12 12 12 13 14 14 13 14 14 14 13 13 12 13 14 13 14 13 13 12 10 10 9 8 7 9 8 8 6 6 6 6 6 6 5 5 5 5 5 5 5 5 4 4 4 4 6 5 4 4 5 6 6 7 7 5 5 6 6 4 6 6 5 6 5 5 4 4 4 5
6 12 15 15 15 nan 15 15 17 18 17 17 14 12 12 12 12 13 15 15 15 16 16 16 16 15 13 14 14 14 14 15 14 15 13 12 12 11 10 10 9 8 10 8 7 8 8 8 8 7 6 6 6 6 6 7 6 6 6 6 6 7 6 5 5 3 4 5 7 7 6 6 6 5 5 5 5 5 7 6 5 4 4 5 4
12 17 20 22 20 18 17 16 15 15 17 19 17 14 13 13 13 14 15 16 18 18 19 19 17 16 15 15 15 15 16 15 14 14 13 13 14 13 13 11 10 10 10 9 9 9 10 10 9 8 8 8 7 7 7 8 7 7 6 7 8 9 8 7 7 5 4 5 5 5 5 6 7 7 5 4 5 4 6 7 6 6 6 5 5
24 26 27 30 32 30 26 20 16 16 18 20 20 17 16 16 15 15 14 17 21 22 22 21 19 18 17 17 17 17 16 15 13 14 13 13 14 14 14 12 12 12 10 10 10 10 11 11 10 9 9 9 9 8 8 8 9 9 8 7 8 10 10 9 8 7 6 6 5 5 4 4 5 5 5 5 5 5 5 6 7 6 6 6 6
23 22 20 23 23 21 20 18 16 16 19 21 23 22 21 20 19 17 17 19 22 25 24 22 21 20 19 18 17 16 15 13 12 13 12 12 13 14 15 14 14 13 12 12 12 12 12 12 10 10 10 11 10 10 9 9 9 10 9 9 9 10 10 10 9 7 6 7 7 6 5 6 7 5 4 5 4 5 4 5 6 7 7 6 7
26 25 21 19 18 17 17 15 21 27 31 33 31 27 24 24 23 24 23 22 23 25 25 24 22 20 19 17 16 15 14 13 14 14 13 13 13 14 14 15 15 13 13 13 13 14 14 12 11 11 11 11 12 11 10 9 9 9 10 10 10 10 10 10 10 9 8 8 8 7 7 8 7 6 5 6 6 5 6 6 5 6 6 8 8
25 20 19 20 19 17 17 23 33 36 38 39 42 45 43 41 45 46 41 39 37 31 27 25 23 21 20 18 19 18 18 18 17 16 16 15 14 14 15 15 15 14 14 14 15 16 15 14 13 13 13 12 12 12 12 11 10 10 10 11 11 11 10 10 10 9 10 10 10 10 9 8 7 8 8 8 9 10 10 9 8 6 8 10 9
20 17 19 20 20 21 21 24 28 30 32 34 36 37 36 36 40 39 33 32 33 34 33 29 25 22 21 20 21 22 22 21 20 19 16 15 15 15 15 16 17 16 15 16 17 17 16 17 16 16 15 16 16 15 15 14 13 12 12 12 12 11 10 12 14 15 14 13 11 11 10 10 9 9 10 9 12 12 12 10 9 10 10 11 12
21 21 19 19 19 20 22 25 29 31 31 32 32 33 33 34 34 34 31 29 29 28 24 26 27 25 25 25 25 24 24 23 22 21 19 17 16 16 16 16 18 18 18 18 18 18 18 17 18 18 18 19 19 17 17 17 16 15 15 14 12 12 15 16 15 14 14 14 13 12 12 12 10 9 9 10 12 14 13 11 11 14 13 14 16
18 18 19 22 24 26 27 29 29 28 30 31 31 31 32 35 36 35 33 33 36 35 30 25 26 27 30 35 36 34 30 26 23 21 21 20 17 16 16 17 18 18 18 19 20 19 19 17 18 19 20 20 20 21 20 17 18 18 17 15 16 16 16 17 16 15 14 14 13 13 12 10 9 7 6 7 11 15 15 14 13 16 16 17 17
23 23 24 27 28 28 30 26 24 27 28 31 33 32 32 35 35 36 35 33 35 36 33 28 25 28 30 33 34 35 36 36 35 35 35 31 24 19 17 17 17 17 17 19 21 20 20 19 19 19 20 20 21 22 20 20 18 17 19 19 20 18 19 18 17 17 16 14 13 13 14 12 10 8 9 9 11 11 12 13 13 17 19 20 19
26 25 25 27 28 27 28 24 24 26 29 34 38 37 36 33 34 37 38 37 37 39 36 32 29 29 30 31 31 32 32 32 33 32 29 28 29 29 25 20 17 17 17 19 20 20 21 21 20 20 20 21 22 25 26 24 23 21 22 23 22 22 20 19 18 18 18 18 16 15 15 15 15 14 14 14 13 11 12 13 14 17 19 19 21
26 26 29 29 27 26 24 19 21 25 29 32 36 36 34 33 34 38 41 41 41 43 41 37 35 32 30 27 27 28 30 32 32 26 24 27 27 25 25 26 23 20 19 18 18 20 21 21 22 22 21 23 26 28 27 27 25 23 23 26 24 24 23 21 20 19 20 19 19 18 17 17 17 15 20 21 20 18 16 16 17 18 19 21 22
31 30 31 30 29 26 22 21 25 28 31 35 37 38 39 39 41 43 45 45 46 46 45 43 40 37 33 30 28 29 34 38 37 35 34 31 29 26 23 22 23 22 19 18 19 20 21 22 23 23 24 27 29 30 28 26 24 23 22 24 25 24 23 23 22 22 22 21 20 20 20 19 21 23 23 22 22 22 22 23 24 24 23 22 23
31 31 31 31 30 28 27 26 27 29 30 33 35 37 39 40 42 46 48 48 46 45 44 43 40 38 36 34 32 35 36 36 35 32 29 25 26 25 22 22 22 21 19 20 20 21 23 24 25 26 28 29 29 31 28 27 24 22 21 22 25 24 24 23 24 24 24 23 22 22 23 22 24 25 25 23 23 24 27 27 28 27 27 26 25
35 33 32 32 31 30 28 27 28 29 29 32 32 33 37 37 39 43 45 45 45 45 46 43 42 40 41 40 38 37 36 35 35 34 32 29 29 31 30 28 24 24 28 29 31 28 27 27 26 27 28 27 27 29 27 27 26 25 23 23 24 25 23 23 24 24 25 25 25 25 25 25 26 26 27 26 25 26 28 30 30 31 31 31 31
38 35 34 32 32 33 34 32 31 30 31 32 32 35 38 38 38 39 41 41 41 41 40 41 41 40 41 42 41 38 36 36 38 37 35 33 34 34 33 31 29 29 31 37 36 29 25 27 28 27 28 26 25 27 27 27 26 26 24 24 25 25 24 23 22 24 24 26 27 28 29 30 29 27 28 26 25 25 27 30 32 34 33 34 34
43 42 41 38 36 37 37 36 37 34 33 32 33 35 37 38 37 36 36 35 34 31 30 33 35 36 35 37 40 38 37 38 40 39 37 34 31 31 31 31 32 32 34 35 31 24 28 31 30 30 29 29 29 31 34 33 32 30 26 26 27 26 26 25 24 26 26 27 27 26 31 31 30 29 30 28 26 26 29 31 33 35 35 35 35
44 43 42 40 39 37 nan nan nan nan 35 34 33 34 34 34 35 35 34 33 32 31 29 28 27 26 26 27 30 32 33 36 38 37 34 31 29 29 27 26 26 30 34 32 27 30 36 34 34 33 36 35 34 35 38 37 37 35 33 31 30 29 28 27 28 30 32 30 28 27 34 32 32 32 33 32 32 31 33 34 35 36 36 36 36
37 39 38 38 37 39 39 38 37 36 nan 36 34 34 34 32 30 30 31 32 33 32 29 25 23 22 20 21 23 24 25 29 32 31 29 28 29 29 29 24 24 25 26 24 28 32 32 33 34 34 35 36 36 35 36 38 38 39 37 34 33 33 31 31 33 34 34 32 31 32 34 37 39 39 40 40 39 40 38 37 36 36 34 33 34
30 32 34 36 nan nan nan nan nan nan nan nan nan 38 nan 35 31 28 28 29 30 30 28 23 20 19 19 20 21 19 19 22 24 24 24 25 27 29 29 27 24 21 19 18 24 29 31 31 32 32 33 35 35 32 33 36 36 36 36 36 34 36 38 38 38 37 35 33 32 34 36 39 42 44 45 44 44 44 42 41 41 39 37 38 40
26 nan nan nan nan nan nan nan nan nan nan nan nan nan nan nan 30 28 27 27 27 27 26 23 22 22 21 20 19 20 18 19 21 21 22 24 25 28 28 28 26 26 27 26 26 26 27 26 27 29 30 31 36 39 31 34 36 36 36 37 35 34 34 38 41 40 38 36 36 39 40 41 42 43 45 45 46 47 46 45 45 44 43 43 42
nan nan nan nan nan nan nan nan nan nan nan nan nan nan nan 37 35 31 29 29 29 29 nan 28 27 26 nan nan 21 21 21 20 21 20 22 25 27 27 28 28 28 28 29 28 25 22 24 26 28 27 26 27 30 32 35 32 34 35 34 36 35 30 29 32 36 36 35 36 37 38 41 43 38 39 43 45 45 42 42 43 43 42 40 40 40
nan nan nan nan nan nan nan nan nan nan nan nan nan nan nan nan 35 33 31 31 33 33 31 31 30 28 27 nan 22 23 24 25 25 25 27 30 30 29 29 29 30 30 30 30 27 24 25 28 30 28 26 26 28 29 30 34 33 35 35 35 35 34 33 29 29 30 31 31 32 33 35 34 32 31 33 34 33 30 28 29 30 30 30 30 32
nan nan nan nan nan nan nan nan nan nan nan nan nan nan nan nan nan nan nan nan nan 28 29 29 nan nan nan nan 25 25 nan nan nan nan nan 29 31 32 33 32 33 33 32 32 30 29 28 28 30 30 29 28 29 29 29 30 34 35 36 35 35 36 34 32 31 28 27 27 29 29 28 26 25 27 30 27 25 27 28 25 23 21 19 24 26
nan nan nan nan nan nan nan nan nan nan nan nan nan nan nan nan nan nan nan nan nan nan nan nan nan nan nan nan nan nan nan nan nan nan nan 31 32 nan nan 36 nan 36 34 34 33 32 32 31 32 31 31 30 30 30 30 30 31 32 32 nan 31 nan 34 34 33 29 29 27 28 30 30 27 23 24 25 25 24 27 26 20 21 24 24 24 26
nan nan nan nan nan nan nan nan nan nan nan nan nan nan nan nan nan nan nan nan nan nan nan nan nan nan nan nan nan nan nan nan nan nan 33 34 35 nan nan nan nan nan nan nan nan nan 34 33 34 33 32 32 32 32 nan nan nan nan nan nan nan nan nan 30 29 28 28 26 29 30 29 25 23 24 28 29 28 28 26 22 23 25 24 22 24
nan nan nan nan nan nan nan nan nan nan nan nan nan nan nan nan nan nan nan nan nan nan nan nan nan nan nan nan nan nan nan nan nan nan nan nan nan nan nan nan nan nan nan nan nan nan nan nan nan 35 34 nan nan nan nan nan nan nan nan nan nan nan nan nan nan 28 nan nan 29 30 29 28 27 28 29 26 25 25 25 25 25 nan 29 29 28
nan nan nan nan nan nan nan nan nan nan nan nan nan nan nan nan nan nan nan nan nan nan nan nan nan nan nan nan nan nan nan nan nan nan nan nan nan nan nan nan nan nan nan nan nan nan nan nan nan nan nan nan nan nan nan nan nan nan nan nan nan nan nan nan nan nan nan nan nan 31 nan nan 29 31 32 31 32 34 34 32 33 36 39 39 37
nan nan nan nan nan nan nan nan nan nan nan nan nan nan nan nan nan nan nan nan nan nan nan nan nan nan nan nan nan nan nan nan nan nan nan nan nan nan nan nan nan nan nan nan nan nan nan nan nan nan nan nan nan nan nan nan nan nan nan nan nan nan nan nan nan nan nan nan nan nan nan 34 37 41 43 42 40 nan nan nan 37 40 nan nan nan
nan nan nan nan nan nan nan nan nan nan nan nan nan nan nan nan nan nan nan nan nan nan nan nan nan nan nan nan nan nan nan nan nan nan nan nan nan nan nan nan nan nan nan nan nan nan nan nan nan nan nan nan nan nan nan nan nan nan nan nan nan nan nan nan nan nan nan nan nan nan nan nan 43 45 46 45 nan nan nan nan nan nan nan nan nan
Wind_Direction
nan nan 270 278 330 4 318 13 88 88 77 85 84 88 96 93 96 89 96 102 104 109 111 109 110 111 118 108 106 107 108 110 108 111 109 107 109 109 108 105 110 110 110 106 90 88 82 85 97 117 117 112 112 109 105 115 124 139 149 149 143 148 138 147 147 166 169 146 145 149 125 139 85 48 355 6 18 26 14 17 358 348 2 354 353
nan nan 233 227 213 297 271 272 93 57 84 85 87 84 96 103 99 98 109 106 102 105 108 109 114 112 115 108 113 110 110 106 109 107 103 103 105 104 105 107 109 108 112 118 127 100 78 82 87 92 109 113 110 114 115 122 141 157 161 157 134 141 140 138 132 138 168 144 137 129 144 141 115 159 167 150 123 41 10 10 352 349 2 359 350
nan nan 263 236 252 308 259 269 85 71 39 59 97 101 100 108 111 116 113 108 107 110 116 113 118 117 116 116 111 116 112 108 107 107 109 106 109 106 108 109 111 113 117 126 131 108 81 68 78 96 109 115 122 131 135 144 148 151 160 156 141 141 138 130 138 148 137 151 140 149 148 182 157 181 155 156 154 89 11 8 352 343 3 350 342
nan nan 272 247 248 240 205 224 201 135 124 139 121 104 110 112 119 121 117 115 114 114 114 118 118 120 122 115 116 112 114 122 125 127 123 126 113 113 110 108 107 105 109 113 124 91 73 72 86 100 108 117 121 131 136 139 147 161 163 158 144 151 162 139 134 149 136 141 137 127 113 208 180 202 167 131 153 144 11 0 6 348 351 343 321
nan nan nan 243 233 240 245 224 232 156 99 113 122 119 124 103 112 117 125 123 125 119 117 127 137 146 146 149 149 150 150 146 143 130 121 117 121 117 97 105 104 101 102 109 103 81 95 89 76 89 117 124 127 123 129 132 142 151 156 154 154 154 159 148 136 151 151 127 101 131 146 168 109 106 215 164 175 168 175 296 320 325 338 339 328
nan nan nan 246 238 229 215 221 236 188 100 106 124 122 132 121 127 134 142 142 135 130 134 142 140 145 149 148 144 143 143 138 114 103 112 109 99 115 116 107 102 107 110 110 126 145 114 106 89 107 124 133 128 123 140 148 155 154 155 149 153 153 158 169 163 151 155 154 141 125 115 147 144 177 228 192 149 139 168 242 278 269 288 318 320
nan nan nan 246 228 243 240 229 229 222 152 153 143 138 141 132 137 148 151 152 149 153 153 159 160 152 143 139 143 136 133 132 136 128 112 115 125 110 102 111 109 103 117 123 130 128 127 126 122 132 140 135 133 150 143 138 140 143 151 158 155 158 167 179 165 143 146 139 148 144 149 147 162 200 188 212 178 161 217 241 266 260 278 278 309
nan nan 234 263 259 260 264 247 230 241 222 191 156 160 155 150 162 156 165 164 161 170 164 166 175 165 160 154 154 151 134 124 136 127 141 147 123 98 97 90 94 108 118 130 136 127 124 126 140 152 142 144 143 127 129 133 145 149 151 153 155 157 162 170 158 157 165 133 143 154 163 174 184 200 234 299 325 261 245 241 278 260 255 296 307
nan nan 221 233 248 242 247 245 231 241 235 224 176 165 165 175 180 173 172 171 167 173 174 171 182 182 186 183 176 166 174 176 183 179 185 171 142 126 98 91 96 111 124 126 128 124 124 129 143 143 144 138 143 126 133 143 137 148 154 156 157 152 146 140 152 150 148 156 151 155 166 175 168 192 214 250 251 248 240 268 274 256 285 310 305
nan nan 227 220 229 232 233 239 240 247 244 238 210 190 182 189 187 179 175 175 172 171 177 176 182 197 199 196 203 190 189 201 207 203 194 193 158 117 103 99 96 113 124 129 123 123 127 136 141 139 133 130 146 139 144 139 130 139 146 142 145 148 151 149 151 150 152 157 155 148 174 165 175 179 192 207 218 235 254 255 257 255 260 287 291
nan nan nan 226 225 226 220 224 233 238 235 240 225 207 199 204 195 180 179 185 179 176 180 178 181 193 199 201 205 208 200 214 216 202 204 192 161 125 111 101 110 106 115 127 122 129 130 134 133 131 130 130 138 141 125 129 120 136 146 150 148 151 159 161 160 163 169 180 165 168 173 191 187 194 189 200 215 224 228 230 233 248 259 261 291
nan nan nan 232 228 220 218 217 227 239 240 240 229 221 214 215 210 191 188 190 186 188 183 181 189 185 191 204 202 207 217 207 210 215 208 189 168 140 126 124 124 119 132 131 132 133 137 136 134 134 134 136 132 127 128 125 143 149 159 160 152 160 166 167 166 175 177 177 170 168 175 187 195 199 208 231 220 224 240 238 224 234 252 285 282
nan nan nan nan 250 242 224 219 224 234 242 244 242 234 220 218 225 215 191 191 190 198 190 186 192 193 192 193 199 212 219 215 206 208 215 219 217 218 213 117 126 135 130 130 128 132 143 144 144 139 143 146 140 139 134 142 146 155 154 160 164 172 189 175 176 177 177 182 164 169 179 195 197 203 229 246 227 242 254 246 232 244 264 263 288
nan nan nan nan 255 243 243 234 228 230 239 241 240 237 222 215 222 224 207 199 192 198 201 198 194 197 198 196 200 218 220 220 216 222 224 227 238 248 262 249 123 112 132 125 125 139 154 146 152 147 150 151 150 147 149 155 167 163 164 177 176 180 195 191 177 180 175 169 175 191 184 196 193 212 236 254 261 254 244 266 273 258 275 290 328
nan nan nan nan 265 262 244 245 240 236 238 234 230 232 227 223 224 224 219 206 198 194 201 205 204 203 203 203 204 209 223 221 217 224 237 237 231 244 239 245 258 172 139 137 152 152 153 162 162 155 156 159 162 164 170 168 177 177 179 195 191 193 208 217 205 197 185 178 193 193 186 200 193 202 232 241 263 255 276 286 272 260 243 251 256
193 nan nan nan 257 255 246 250 255 250 248 236 235 230 229 227 227 228 231 222 207 200 198 206 207 209 208 211 206 205 207 215 215 217 225 232 241 244 244 243 241 248 208 196 158 174 162 160 172 161 164 170 172 173 180 181 193 196 185 200 199 207 218 221 222 225 212 197 195 194 207 192 186 191 217 239 246 265 263 277 276 286 295 208 206
200 nan nan nan nan 250 253 268 266 269 262 250 241 236 235 231 227 225 225 222 218 210 208 208 209 209 208 212 213 208 210 219 225 228 234 229 234 235 241 243 238 241 251 231 200 195 182 176 180 166 179 185 182 176 188 192 203 207 200 203 198 213 225 223 229 231 228 219 212 215 217 198 189 196 214 236 247 262 283 301 314 319 333 321 342
200 201 nan nan nan 250 228 237 272 280 279 263 252 242 236 235 233 230 226 226 215 216 214 213 214 209 211 215 214 215 215 216 220 227 231 238 236 236 230 243 249 252 258 255 259 245 232 209 210 199 210 218 200 196 204 201 212 207 205 204 207 223 224 224 227 233 228 240 229 224 230 215 229 229 223 236 254 267 277 296 313 321 325 329 342
195 188 nan nan nan 242 231 232 256 268 275 274 263 255 242 235 238 235 234 230 226 216 215 213 215 210 212 217 222 220 219 219 218 220 226 233 244 245 241 248 250 246 251 259 273 275 276 277 272 256 254 261 249 232 232 228 224 212 219 215 217 230 231 221 222 237 239 245 238 228 224 226 244 250 235 242 252 259 254 291 296 306 309 312 326
199 194 200 nan nan 255 253 245 247 256 262 261 263 254 260 255 251 238 233 234 228 224 223 222 218 213 213 214 214 218 223 226 225 227 227 226 231 240 237 242 249 246 249 256 266 270 277 286 285 288 285 279 266 247 250 252 251 243 241 239 226 243 237 229 217 234 242 246 245 234 226 229 248 256 237 234 245 256 285 300 301 312 314 318 321
204 202 206 216 nan nan 243 243 237 238 248 252 249 253 253 254 259 253 248 240 235 228 223 219 221 217 217 215 215 219 222 224 228 229 230 225 225 231 236 238 240 243 246 249 254 259 269 279 284 285 296 292 276 257 252 257 262 262 258 259 253 259 255 233 233 205 226 243 238 231 220 226 256 257 258 260 261 270 288 293 292 298 304 328 323
230 214 211 214 220 nan 233 234 230 234 247 259 257 246 242 249 254 256 251 245 242 232 222 218 217 218 221 219 216 219 221 224 228 230 229 228 227 231 233 235 241 242 251 255 254 252 259 273 275 281 286 287 281 276 267 264 265 264 262 269 271 267 262 248 251 240 225 237 242 224 206 209 235 253 251 254 277 281 296 303 308 316 326 343 337
244 226 215 212 213 222 231 239 238 241 249 261 260 251 245 247 249 248 256 252 245 239 229 224 220 218 219 221 222 221 222 225 228 229 230 232 234 234 236 240 241 240 246 254 257 261 262 266 269 274 280 278 282 287 279 275 275 274 274 272 275 273 268 264 266 269 269 261 251 240 219 213 218 218 223 243 267 281 294 303 323 324 327 332 325
243 240 235 227 216 215 216 219 232 234 242 252 256 250 241 244 250 248 254 255 249 243 238 233 229 225 223 223 223 222 224 225 229 230 232 234 237 239 240 241 241 240 243 245 254 260 262 266 269 270 276 276 278 280 281 281 285 283 280 275 269 269 271 271 271 269 271 282 284 268 251 241 233 227 221 232 250 278 301 315 321 328 315 320 316
255 254 260 269 264 251 236 223 228 243 243 243 248 248 242 239 241 243 243 248 248 246 245 241 239 236 232 231 229 227 225 226 229 233 237 239 240 241 242 243 242 241 240 242 245 251 257 262 271 272 272 274 276 277 278 279 275 275 279 276 269 268 270 273 273 273 275 278 283 289 278 262 257 249 231 243 255 269 285 299 316 318 318 309 294
241 241 247 259 265 257 243 238 238 235 229 223 221 229 238 241 240 234 231 237 242 243 242 243 242 242 241 241 238 234 229 225 224 226 233 240 244 245 245 243 245 243 240 241 245 249 254 260 262 265 268 270 270 271 274 275 276 272 273 271 271 270 272 273 273 274 275 278 281 279 266 261 262 271 264 255 251 256 272 287 293 289 288 280 280
254 258 265 267 271 271 252 237 236 240 245 244 234 224 219 221 228 230 225 218 217 220 229 236 238 239 240 241 240 237 233 228 223 218 217 225 236 246 250 248 248 246 245 243 242 243 245 252 254 256 257 261 263 264 264 264 264 266 270 271 271 271 272 277 277 274 267 268 272 272 272 278 282 286 284 277 273 267 265 262 262 261 275 284 289
245 246 249 258 265 268 268 268 263 254 250 252 248 244 240 238 240 241 240 241 236 228 219 221 229 235 235 237 235 235 235 233 230 225 219 219 226 236 245 250 251 250 248 247 247 247 248 249 251 252 251 252 254 255 257 258 257 259 260 262 268 272 277 266 260 261 262 266 275 278 283 291 294 291 289 286 284 281 279 281 282 278 281 288 289
236 232 232 243 255 259 262 260 257 254 251 254 255 252 248 248 248 249 249 248 248 250 247 236 230 230 231 230 229 228 229 229 230 228 220 218 223 228 237 246 252 253 252 253 252 253 253 253 252 253 252 252 257 257 257 259 258 255 254 255 260 262 264 267 265 266 269 274 276 282 285 288 292 310 319 306 302 298 292 292 285 287 293 293 287
263 264 251 244 248 243 238 246 257 258 256 253 252 250 249 251 250 248 247 240 235 237 241 236 236 239 240 236 226 218 216 218 221 223 221 221 223 226 232 240 246 252 254 255 256 256 257 255 253 253 252 254 255 255 258 271 269 264 264 261 257 257 261 262 266 266 264 267 276 282 280 299 306 316 313 303 298 310 310 300 293 292 294 294 294
239 245 243 250 252 251 252 252 255 260 258 253 251 250 249 251 252 250 251 249 242 241 241 239 234 234 240 245 244 240 233 223 214 214 216 215 219 223 232 234 238 247 251 254 259 260 258 255 255 254 256 256 255 255 264 270 275 274 267 266 266 264 260 263 265 269 269 270 272 276 273 271 272 271 266 268 272 277 300 312 310 306 301 298 295
229 234 241 241 250 258 257 257 258 256 253 250 245 244 245 244 246 249 249 248 243 241 242 241 240 240 243 245 244 243 243 239 232 222 217 228 231 219 213 225 234 240 245 252 258 261 259 258 256 256 258 259 258 259 264 262 265 268 269 267 270 269 268 269 269 271 273 272 269 267 268 271 272 275 274 270 268 278 287 291 293 298 303 306 297
231 230 236 242 248 247 257 263 260 260 257 247 244 246 247 245 243 244 247 244 239 237 238 239 237 238 241 246 246 241 239 238 236 233 229 233 238 229 224 220 217 226 240 252 258 260 262 260 258 257 256 256 256 254 261 266 266 265 269 268 265 268 272 272 271 272 273 273 270 268 264 265 269 277 272 273 277 278 281 289 291 293 298 296 295
231 231 236 238 247 261 260 246 243 241 242 242 239 241 242 239 242 243 242 240 238 233 231 230 230 231 234 237 236 236 236 235 231 228 228 221 223 228 232 236 235 223 227 242 249 253 254 257 256 256 254 252 251 245 248 254 260 265 269 268 262 266 269 272 274 273 273 275 277 276 272 268 270 270 269 273 275 282 284 285 285 283 282 285 290
232 234 238 241 243 255 264 259 250 247 248 248 242 239 241 244 245 245 243 241 240 242 241 237 232 229 231 231 228 228 237 240 238 238 243 242 239 238 236 239 246 249 238 228 244 257 253 250 251 252 254 250 247 241 242 243 244 252 258 265 263 263 265 267 269 271 273 274 274 274 273 272 272 271 269 271 274 279 283 286 286 285 283 279 278
230 229 233 239 245 256 265 265 261 258 253 254 250 247 245 242 244 245 243 241 241 242 244 240 235 235 237 233 230 231 236 242 242 242 245 245 240 232 231 236 236 237 243 239 226 229 245 251 253 255 257 254 250 243 243 243 244 244 248 258 262 265 267 267 268 270 271 271 271 271 271 270 272 272 273 271 275 277 283 287 287 284 281 279 277
238 236 238 241 247 255 259 260 258 257 258 256 253 250 249 247 244 241 242 243 244 244 241 235 234 237 241 241 240 239 237 239 241 241 243 246 243 236 236 238 236 238 241 241 238 234 234 246 252 253 257 256 251 243 240 241 243 243 248 254 257 262 264 266 267 268 269 267 267 268 269 271 271 272 269 267 272 282 284 288 287 285 282 279 278
242 242 242 242 244 248 252 255 256 250 247 249 248 248 250 248 248 246 245 243 244 243 239 235 233 233 234 239 243 240 238 237 237 237 238 240 241 240 242 246 246 243 247 248 245 239 241 243 248 250 252 254 251 244 238 236 237 238 244 249 252 258 260 261 259 258 259 262 264 274 272 271 273 271 264 263 263 273 282 283 284 284 284 281 278
241 241 242 241 242 245 nan nan nan nan 249 249 250 250 249 247 245 242 242 242 241 239 236 235 234 233 231 231 232 230 227 228 229 231 233 232 232 239 247 256 261 261 255 254 252 244 241 241 242 245 250 251 250 247 243 244 244 246 250 255 254 255 255 255 257 256 254 257 258 266 273 274 274 272 267 265 264 270 280 282 284 285 286 287 282
241 244 245 243 239 240 241 244 248 248 nan 249 252 253 254 252 246 244 244 244 239 235 234 233 232 230 227 224 222 220 218 220 221 222 223 224 227 233 236 241 255 263 259 249 243 242 245 243 243 244 244 246 248 247 245 245 248 250 251 256 259 261 257 252 251 255 258 257 259 260 262 268 273 272 269 267 266 265 275 277 278 282 285 282 280
236 237 241 243 nan nan nan nan nan nan nan nan nan 252 nan 250 248 244 242 239 236 233 231 228 221 219 217 218 218 218 223 224 221 221 222 224 226 231 235 239 243 252 267 254 246 245 246 242 241 243 246 247 252 253 247 243 244 248 250 253 255 252 248 248 249 251 256 262 264 263 265 269 270 270 270 270 269 268 269 273 273 274 274 276 278
248 nan nan nan nan nan nan nan nan nan nan nan nan nan nan nan 241 238 234 233 233 231 227 224 222 223 228 230 228 226 225 227 226 227 229 231 232 234 237 241 248 253 255 254 251 250 250 250 247 247 247 248 251 252 254 247 246 250 252 253 259 256 253 249 255 255 254 256 257 259 261 259 259 262 264 263 264 264 264 269 269 270 270 270 273
nan nan nan nan nan nan nan nan nan nan nan nan nan nan nan 240 239 236 233 232 232 230 nan 230 237 238 nan nan 237 242 240 240 243 242 246 247 245 244 242 245 249 250 254 259 261 257 255 256 255 253 252 252 251 253 253 256 254 255 255 256 258 257 250 261 263 264 263 261 261 264 268 267 259 258 260 261 262 263 266 268 271 271 268 268 271
nan nan nan nan nan nan nan nan nan nan nan nan nan nan nan nan 238 234 234 235 235 236 236 234 236 236 230 nan 239 245 248 250 251 250 249 249 249 250 249 250 251 250 252 256 255 257 257 258 258 257 256 256 256 257 256 254 257 255 256 258 257 255 257 261 263 264 262 260 262 267 266 263 262 263 262 263 267 267 265 264 266 268 269 268 267
nan nan nan nan nan nan nan nan nan nan nan nan nan nan nan nan nan nan nan nan nan 235 234 230 nan nan nan nan 249 252 nan nan nan nan nan 246 248 248 251 249 253 254 256 260 260 260 258 258 259 260 258 255 254 256 257 254 253 257 256 257 260 261 258 261 267 266 265 263 261 262 263 260 261 269 271 267 259 255 252 255 263 264 266 267 266
nan nan nan nan nan nan nan nan nan nan nan nan nan nan nan nan nan nan nan nan nan nan nan nan nan nan nan nan nan nan nan nan nan nan nan 241 244 nan nan 250 nan 255 257 260 263 263 263 261 260 258 258 257 256 257 257 257 257 257 258 nan 254 nan 261 262 266 266 262 258 255 254 253 251 259 267 267 258 254 257 255 255 260 273 270 276 276
nan nan nan nan nan nan nan nan nan nan nan nan nan nan nan nan nan nan nan nan nan nan nan nan nan nan nan nan nan nan nan nan nan nan 241 242 241 nan nan nan nan nan nan nan nan nan 266 265 263 261 261 260 257 256 nan nan nan nan nan nan nan nan nan 260 262 264 261 262 262 261 263 258 259 259 259 262 257 255 261 268 266 268 275 277 276
nan nan nan nan nan nan nan nan nan nan nan nan nan nan nan nan nan nan nan nan nan nan nan nan nan nan nan nan nan nan nan nan nan nan nan nan nan nan nan nan nan nan nan nan nan nan nan nan nan 266 265 nan nan nan nan nan nan nan nan nan nan nan nan nan nan 261 nan nan 264 264 266 270 266 269 266 259 252 261 277 280 268 nan 270 271 273
nan nan nan nan nan nan nan nan nan nan nan nan nan nan nan nan nan nan nan nan nan nan nan nan nan nan nan nan nan nan nan nan nan nan nan nan nan nan nan nan nan nan nan nan nan nan nan nan nan nan nan nan nan nan nan nan nan nan nan nan nan nan nan nan nan nan nan nan nan 261 nan nan 268 269 270 268 269 275 275 269 258 253 256 259 261
nan nan nan nan nan nan nan nan nan nan nan nan nan nan nan nan nan nan nan nan nan nan nan nan nan nan nan nan nan nan nan nan nan nan nan nan nan nan nan nan nan nan nan nan nan nan nan nan nan nan nan nan nan nan nan nan nan nan nan nan nan nan nan nan nan nan nan nan nan nan nan 261 265 270 273 275 276 nan nan nan 259 257 nan nan nan
nan nan nan nan nan nan nan nan nan nan nan nan nan nan nan nan nan nan nan nan nan nan nan nan nan nan nan nan nan nan nan nan nan nan nan nan nan nan nan nan nan nan nan nan nan nan nan nan nan nan nan nan nan nan nan nan nan nan nan nan nan nan nan nan nan nan nan nan nan nan nan nan 260 264 267 270 nan nan nan nan nan nan nan nan nan